Indianapolis, IN

8:02 AM EDT on October 20, 2019 (GMT -0400)
Indianapolis International

Weather History for KIND - June, 2019

Change the Weather History Date:

Friday, June 14, 2019

  Actual Average Record
Temperature  
Mean Temperature 62 °F 72 °F  
Max Temperature 76 °F 82 °F 94 °F (1954)
Min Temperature 47 °F 62 °F 45 °F (1955)
Degree Days  
Heating Degree Days 3 0  
Month to date heating degree days 9 13  
Since 1 June heating degree days 9 13  
Since 1 July heating degree days 5385 5375  
Cooling Degree Days 0 7  
Month to date cooling degree days 60 82  
Year to date cooling degree days 171 166  
Since 1 June cooling degree days 60 82  
Growing Degree Days 10 (Base 50)    
Moisture  
Dew Point 46 °F    
Average Humidity 61    
Maximum Humidity 86    
Minimum Humidity 35    
Precipitation  
Precipitation T in 0.14 in 2.12 in (1880)
Month to date precipitation 1.29 1.99  
Year to date precipitation 22.93 19.39  
Snow  
Snow 0.00 in 0.00 in 0.00 in ()
Month to date snowfall 0.0 0.0  
Since 1 June snowfall 0.0 0.0  
Since 1 July snowfall 19.4 25.9  
Snow Depth 0.00 in    
Sea Level Pressure  
Sea Level Pressure 30.08 in    
Wind  
Wind Speed 11 mph (SSW)    
Max Wind Speed 21 mph    
Max Gust Speed 30 mph    
Visibility 10 miles    
Events Rain    
T = Trace of Precipitation, MM = Missing Value Source: NWS Daily Summary

Daily Weather History Graph

Daily Weather History Graph

Search for Another Location

Airport or City:

Astronomy

Jun. 14, 2019 Rise Set
Actual Time 6:16 AM EDT 9:14 PM EDT
Civil Twilight 5:44 AM EDT 9:46 PM EDT
Nautical Twilight 5:02 AM EDT 10:28 PM EDT
Astronomical Twilight 4:15 AM EDT 11:16 PM EDT
Moon 6:35 PM EDT (6/14) 4:33 AM EDT (6/14)
Length of Visible Light 16h 02m
Length of Day
14h 57m
Waxing Gibbous, 92% of the Moon is Illuminated
Jun 14
Waxing Gibbous
Jun 17
Full
Jun 25
Last Quarter
Jul 2
New
Jul 9
First Quarter

Hourly Weather History & Observations

Time (EDT) Temp. Dew Point Humidity Pressure Visibility Wind Dir Wind Speed Gust Speed Precip Events Conditions
12:54 AM 52.0 °F 46.9 °F 83% 30.08 in 10.0 mi SW 3.5 mph - N/A   Clear
1:54 AM 50.0 °F 45.0 °F 83% 30.08 in 10.0 mi SW 5.8 mph - N/A   Clear
2:54 AM 50.0 °F 46.0 °F 86% 30.08 in 10.0 mi Calm Calm - N/A   Clear
3:54 AM 48.9 °F 45.0 °F 86% 30.09 in 10.0 mi WSW 6.9 mph - N/A   Clear
4:54 AM 48.0 °F 44.1 °F 86% 30.10 in 10.0 mi WSW 8.1 mph - N/A   Clear
5:54 AM 48.0 °F 43.0 °F 83% 30.12 in 10.0 mi WSW 6.9 mph - N/A   Partly Cloudy
6:54 AM 48.0 °F 44.1 °F 86% 30.14 in 10.0 mi SW 5.8 mph - N/A   Clear
7:54 AM 53.1 °F 46.0 °F 77% 30.14 in 10.0 mi SW 4.6 mph - N/A   Partly Cloudy
8:54 AM 57.9 °F 48.0 °F 70% 30.16 in 10.0 mi SW 6.9 mph - N/A   Partly Cloudy
9:54 AM 64.0 °F 46.9 °F 54% 30.15 in 10.0 mi SSW 11.5 mph - N/A   Scattered Clouds
10:54 AM 68.0 °F 43.0 °F 40% 30.14 in 10.0 mi SW 13.8 mph 17.3 mph N/A   Mostly Cloudy
11:54 AM 70.0 °F 44.1 °F 39% 30.13 in 10.0 mi South 15.0 mph 26.5 mph N/A   Mostly Cloudy
12:54 PM 71.1 °F 43.0 °F 36% 30.11 in 10.0 mi SW 15.0 mph 24.2 mph N/A   Mostly Cloudy
1:54 PM 73.0 °F 44.1 °F 35% 30.09 in 10.0 mi SSW 13.8 mph 23.0 mph N/A   Mostly Cloudy
2:54 PM 73.9 °F 46.0 °F 37% 30.07 in 10.0 mi SSW 10.4 mph - N/A   Mostly Cloudy
3:54 PM 75.0 °F 46.9 °F 37% 30.04 in 10.0 mi South 16.1 mph 26.5 mph N/A   Mostly Cloudy
4:54 PM 73.9 °F 45.0 °F 35% 30.02 in 10.0 mi SSW 16.1 mph 24.2 mph N/A   Mostly Cloudy
5:54 PM 73.0 °F 46.9 °F 39% 30.00 in 10.0 mi South 16.1 mph 23.0 mph N/A   Mostly Cloudy
6:54 PM 71.1 °F 48.0 °F 44% 30.00 in 10.0 mi South 13.8 mph 27.6 mph N/A   Mostly Cloudy
7:54 PM 70.0 °F 46.9 °F 44% 30.00 in 10.0 mi South 13.8 mph - N/A   Mostly Cloudy
8:54 PM 69.1 °F 48.0 °F 47% 29.99 in 10.0 mi South 12.7 mph - N/A   Mostly Cloudy
9:54 PM 66.0 °F 53.1 °F 63% 29.98 in 10.0 mi South 13.8 mph - 0.00 in Rain Light Rain